RH
86 84 82 83 82 77 68 62 60 61 63 69 76 84 90 94 97 98 99 98 97 96 94 92 92 90 88 84 81 76 70 61 54 48 44 42 38 33 28 27 30 38 50 65 76 82 85 83 82 82 83 86 90 95 99 100 100 100 100 100 99 99 99 98 96 94 90 85 82 82 83 85 86 86 85 84 83 82 81 83 86 87 86 86 86 88
87 86 86 87 86 84 77 67 62 60 60 64 68 74 80 87 92 95 97 98 98 96 94 92 89 86 84 82 79 76 73 66 60 53 48 44 40 36 30 27 28 32 42 56 68 78 84 84 82 81 81 82 86 90 96 99 100 100 100 100 100 99 99 99 98 96 93 90 88 88 89 92 92 90 89 88 87 87 86 88 89 90 87 87 88 89
92 90 89 87 85 83 78 70 63 59 57 58 60 64 70 78 85 90 94 96 97 97 96 92 88 84 80 77 76 74 71 67 62 56 50 46 42 38 33 28 26 28 35 46 59 71 80 83 84 83 82 82 83 86 91 96 99 100 100 100 100 100 100 100 99 98 96 94 93 93 95 97 96 95 93 92 92 92 92 92 92 92 88 88 89 91
96 94 92 88 85 81 76 69 62 56 52 51 52 56 62 70 78 85 88 90 92 94 96 95 92 87 81 76 73 70 68 66 62 58 52 48 44 40 35 29 26 26 29 39 50 62 73 80 83 84 84 84 84 84 88 94 97 99 99 100 100 100 100 100 100 99 98 96 95 96 98 99 98 98 97 96 96 96 96 96 96 95 90 90 90 92
98 97 95 92 86 80 73 67 60 54 47 46 47 51 57 65 73 80 84 82 81 83 89 94 96 93 87 80 74 69 66 64 61 58 53 48 44 40 36 31 27 24 25 32 42 52 64 72 78 83 85 86 85 85 87 94 97 98 99 100 100 100 100 100 100 100 99 98 97 98 100 100 100 100 100 100 100 99 99 98 98 98 94 92 92 93
92 93 93 89 85 80 73 66 60 54 48 45 46 50 55 62 70 76 80 77 74 74 78 88 94 97 94 86 77 69 64 61 60 57 54 49 45 42 37 32 28 24 23 26 33 43 54 63 72 78 84 86 86 86 89 94 96 98 99 100 100 100 100 100 100 100 100 99 99 100 100 100 100 100 100 100 100 100 100 100 100 99 98 94 92 93
83 83 84 83 82 80 76 70 65 62 60 55 53 53 56 60 67 73 76 76 76 74 72 80 90 97 97 90 80 71 63 60 58 56 54 51 47 42 38 34 30 26 23 23 27 34 43 53 62 71 79 84 86 88 92 95 96 98 99 100 100 100 100 100 100 100 100 100 100 100 100 100 100 100 100 100 100 100 100 100 100 100 99 97 94 94
80 76 75 76 77 78 77 74 74 75 76 73 68 62 60 61 66 71 74 77 77 74 72 76 85 94 98 93 85 75 66 60 57 55 54 52 48 44 40 36 32 29 25 23 24 27 34 43 52 62 72 80 86 90 95 97 98 98 99 99 99 100 100 100 100 100 100 100 100 100 100 100 100 100 100 100 100 100 100 100 100 100 100 98 97 96
84 80 76 74 74 74 74 74 76 80 85 86 82 77 73 71 71 72 74 76 76 75 71 74 81 90 96 94 89 81 72 64 60 56 54 51 48 45 42 39 36 33 29 26 24 24 27 34 42 52 63 73 82 90 97 98 99 99 99 99 98 99 100 100 100 100 100 100 100 100 100 100 100 100 100 100 100 100 100 100 100 100 100 99 99 98
93 92 90 88 85 82 81 77 74 74 80 86 88 88 87 84 81 78 76 77 79 78 71 72 79 87 94 95 92 86 78 71 64 58 54 51 48 45 43 42 40 38 34 30 26 24 24 28 35 43 54 64 76 87 97 98 99 99 99 99 99 99 100 100 100 100 100 100 100 100 100 100 100 100 100 100 100 100 100 100 100 100 100 100 99 99
98 99 98 98 97 96 94 92 86 80 76 80 85 89 90 87 85 83 82 81 80 78 71 72 78 87 94 96 96 92 84 76 68 60 54 51 49 48 48 47 46 43 41 38 33 28 25 26 29 36 45 56 68 80 91 96 98 99 99 99 99 100 100 100 100 100 100 100 100 100 100 100 100 100 100 100 100 100 99 99 99 99 100 99 99 99
99 99 98 98 99 99 99 99 96 90 81 79 80 82 83 80 78 79 83 83 80 76 73 73 79 88 96 98 98 96 89 79 70 61 55 52 52 52 54 56 55 54 51 48 43 37 30 26 27 31 39 50 62 73 83 90 94 97 98 99 99 100 100 100 100 100 100 100 100 100 100 100 100 100 100 100 100 99 99 99 99 99 99 99 99 99
97 97 97 98 98 99 99 99 99 96 91 88 90 92 94 87 85 84 82 78 76 74 75 75 79 87 96 99 100 98 92 81 71 62 58 57 56 58 60 63 64 64 62 60 55 47 39 33 32 34 39 49 60 69 77 83 89 93 96 98 98 99 100 100 100 100 100 100 100 100 100 100 100 100 100 100 100 100 99 99 99 98 98 98 98 98
96 96 96 96 97 98 98 98 99 99 98 98 98 99 99 98 97 96 95 85 77 74 74 76 79 85 96 99 100 98 95 84 74 68 67 69 69 69 69 69 69 70 70 68 64 58 51 46 44 45 48 55 62 70 76 80 84 88 92 94 97 98 99 100 100 100 100 100 100 100 100 100 100 100 100 100 100 100 99 99 98 98 98 98 98 98
96 96 95 96 97 97 97 98 98 99 99 99 99 99 98 99 99 99 100 96 90 82 77 76 76 82 94 98 100 100 98 90 82 79 82 87 89 88 84 79 76 75 74 74 74 72 68 65 63 63 65 68 71 74 77 80 83 86 88 91 94 96 98 99 99 99 99 100 100 100 100 100 100 100 100 100 100 100 99 99 99 99 98 98 98 98
96 96 95 96 96 97 97 98 99 99 98 98 98 99 99 99 99 100 100 99 98 94 90 81 76 78 90 97 100 100 100 96 92 90 92 97 98 98 96 90 87 84 82 80 82 84 86 85 83 82 81 81 80 79 80 83 85 87 88 88 90 92 96 97 98 99 98 98 99 100 100 100 100 100 100 100 100 100 99 99 99 99 98 98 98 97
95 96 96 96 96 96 96 97 97 97 97 97 98 98 99 99 99 99 100 100 99 98 96 86 79 79 88 96 100 100 100 99 98 97 97 99 100 100 100 97 95 93 92 89 88 90 96 96 94 92 91 90 88 87 87 89 90 90 90 91 92 92 95 97 98 99 98 98 99 99 99 99 100 100 100 100 100 99 99 99 99 98 98 98 96 94
94 95 95 96 96 96 96 96 96 96 96 96 95 95 97 98 99 99 99 100 100 100 99 89 80 80 92 97 99 100 100 100 99 99 99 100 100 100 100 99 98 98 98 97 96 96 98 96 94 93 93 94 94 95 94 95 95 95 94 93 94 96 98 99 99 99 99 99 99 99 99 99 99 99 99 99 99 99 99 98 98 98 97 96 93 89
94 94 94 94 95 95 96 96 96 97 97 96 95 93 92 94 97 99 99 100 100 100 100 93 81 75 86 96 100 100 100 100 100 99 99 100 100 100 100 99 99 99 100 100 100 100 99 96 92 90 90 93 96 98 99 99 98 98 98 98 98 99 99 100 100 100 99 99 99 99 99 99 99 99 99 99 99 99 98 97 96 95 93 90 85 80
94 94 93 94 94 94 95 95 96 96 96 96 95 92 90 90 94 98 99 100 100 100 100 96 84 74 78 93 99 100 100 100 100 99 99 100 100 100 99 100 100 100 100 100 100 100 100 98 96 94 91 90 94 98 100 100 100 100 100 100 100 100 100 100 100 100 99 99 99 99 99 99 99 99 99 99 98 98 97 95 93 91 88 84 80 76
93 93 94 94 94 94 94 94 95 96 96 95 95 94 92 90 91 94 98 98 99 100 100 100 90 79 73 89 97 100 100 100 100 100 99 100 100 100 99 99 99 100 100 100 100 100 100 100 100 99 98 94 94 96 100 100 100 100 100 100 100 100 100 100 100 100 99 99 99 99 99 99 99 99 98 98 98 97 96 94 92 91 90 88 86 82
92 93 93 93 94 94 94 93 93 94 95 95 95 95 95 92 90 91 94 96 95 95 97 99 96 88 78 87 94 98 99 100 99 99 99 100 100 100 99 99 99 99 99 100 100 100 100 100 100 100 100 98 96 96 98 99 100 100 100 100 100 100 100 100 99 99 99 99 99 99 99 98 98 98 98 98 97 96 95 94 93 92 90 88 84 78
92 92 92 92 93 93 93 93 93 93 94 95 96 96 95 94 92 92 93 94 90 87 89 97 99 95 87 87 92 98 99 99 99 99 99 100 100 100 99 99 99 99 100 100 100 100 100 100 100 100 100 100 99 99 100 99 99 99 99 100 100 100 100 99 99 99 99 99 99 98 98 97 97 96 96 96 95 94 92 90 88 84 80 74 68 60
92 92 92 92 92 92 92 93 93 93 93 93 94 94 93 93 92 92 94 94 89 83 81 94 99 98 94 87 90 96 99 99 99 99 99 100 100 100 99 99 99 100 99 99 99 100 100 100 100 100 100 100 100 100 100 100 99 99 99 99 99 99 99 99 99 99 99 98 98 98 98 97 96 95 94 92 90 88 84 80 76 71 66 61 56 51
92 92 92 92 92 92 92 92 93 93 92 92 90 90 90 90 92 94 95 95 90 83 80 92 98 99 98 89 90 96 99 99 98 99 98 99 99 100 99 99 99 99 99 99 98 99 99 99 99 99 100 100 100 100 100 100 100 99 99 99 99 99 99 99 99 99 99 98 98 97 97 96 94 92 90 86 82 78 74 70 66 62 60 58 58 57
92 92 92 92 92 92 92 92 93 93 93 92 91 90 88 89 91 94 96 97 92 86 82 93 98 100 100 92 92 94 100 99 99 98 98 99 99 100 100 99 98 98 99 98 98 98 98 99 99 99 99 99 99 99 99 100 100 99 99 99 99 98 98 98 98 98 98 98 97 96 95 94 91 88 84 80 75 71 66 63 61 60 60 62 64 67
92 92 92 92 92 92 92 93 94 94 94 94 93 92 91 91 93 95 98 98 94 89 86 96 99 100 100 94 90 92 100 99 99 98 98 98 99 100 100 99 98 98 97 97 98 98 98 98 98 98 99 99 99 99 99 99 99 99 99 99 99 98 98 98 98 98 98 97 96 94 92 90 86 82 78 74 70 67 64 61 61 62 64 67 71 75
92 92 92 92 93 93 93 93 94 94 95 95 96 96 95 96 97 98 99 100 96 92 91 98 100 100 100 96 90 89 99 100 99 99 98 98 99 100 100 99 97 94 93 95 96 97 98 98 98 98 98 98 98 98 98 98 99 99 99 99 98 98 98 98 97 97 96 96 94 92 89 85 82 78 74 72 69 67 66 65 66 69 72 76 80 84
92 92 92 93 93 93 93 94 94 94 95 96 96 96 97 98 99 99 100 100 98 97 97 99 100 100 99 96 90 90 97 99 99 99 99 99 99 100 99 98 94 91 90 94 96 98 98 98 98 98 98 98 98 98 98 98 98 98 98 98 98 98 98 97 96 95 94 92 90 88 85 82 80 77 76 74 74 74 74 76 78 80 83 86 87 88
92 92 92 93 93 93 93 94 94 94 95 96 96 97 98 98 99 100 100 100 100 100 100 100 100 99 98 96 94 94 96 99 100 99 99 99 100 100 99 98 95 92 90 96 98 100 100 100 99 98 97 96 97 97 98 98 98 98 98 98 98 97 97 96 96 94 93 92 90 88 87 86 84 84 84 84 84 85 86 86 88 88 89 88 88 87
92 92 92 92 93 93 93 93 93 94 94 95 96 97 98 99 99 100 100 100 100 100 100 100 100 99 98 97 97 98 96 99 100 100 99 100 100 99 97 98 97 95 92 95 98 100 100 100 100 99 98 97 96 97 98 98 98 98 98 98 98 97 97 97 97 97 96 96 95 94 93 93 92 92 92 92 92 92 91 90 89 88 86 85 85 86
92 92 92 92 92 92 92 92 93 93 94 94 96 96 98 98 99 99 100 100 100 100 100 100 100 100 100 98 97 96 94 98 99 100 100 100 100 98 94 97 99 98 96 95 97 100 100 100 100 100 99 99 98 98 98 98 98 98 98 98 98 97 96 96 96 96 96 96 95 95 94 93 93 92 92 91 90 89 88 86 84 83 82 82 83 85
91 92 92 92 92 92 92 92 92 92 93 94 95 96 96 97 98 98 100 100 100 100 100 100 100 100 100 98 95 92 90 95 98 100 100 100 100 99 96 98 99 100 99 98 99 100 100 100 100 100 100 100 100 100 99 98 98 97 96 96 96 95 93 90 90 90 90 90 90 89 88 87 86 86 86 85 84 84 84 83 82 80 80 80 82 84
89 90 90 91 92 92 92 92 91 92 92 93 94 95 95 96 96 97 99 100 100 100 100 100 100 100 100 99 96 92 88 95 99 100 100 100 100 100 99 100 100 100 100 100 100 100 100 100 100 100 100 100 100 100 100 99 98 97 95 92 91 90 87 84 82 82 83 84 84 84 84 83 83 83 83 83 83 83 82 82 82 82 81 80 81 82
85 86 87 89 90 90 92 91 90 90 90 92 92 94 94 95 95 96 97 98 99 100 100 100 100 100 100 100 98 94 90 96 99 100 100 100 100 100 100 100 100 100 100 100 100 100 100 100 100 100 100 100 100 100 100 99 98 96 94 90 88 85 83 79 78 78 79 80 82 83 84 84 83 83 82 82 82 82 82 82 82 82 82 81 80 80
82 83 85 87 88 90 90 90 90 90 88 89 90 92 93 94 94 95 96 97 98 99 99 100 100 100 100 100 99 98 95 97 99 100 100 100 100 100 100 100 100 100 100 100 100 100 100 100 100 100 100 100 100 100 100 99 97 96 94 92 90 87 85 82 79 78 78 80 82 84 86 85 84 82 80 78 77 76 76 76 76 76 76 76 76 76
79 81 83 86 88 89 90 90 90 90 90 89 89 90 92 92 93 94 95 96 97 98 98 99 100 100 100 100 100 99 98 98 99 100 100 100 100 100 100 100 100 99 99 99 100 100 100 100 100 100 100 100 100 100 100 99 98 97 96 96 95 93 92 90 87 86 84 84 85 86 87 86 83 80 76 74 71 70 69 68 68 68 69 69 70 72
76 79 82 85 87 89 90 90 91 92 92 90 90 90 90 92 92 93 94 95 96 97 98 98 99 100 100 99 100 100 100 100 100 100 100 100 99 99 99 100 100 99 98 96 97 98 100 100 100 100 100 100 100 100 100 100 99 99 98 98 98 97 97 96 94 93 91 90 90 89 88 85 81 77 74 71 69 68 67 67 67 68 68 69 70 72
72 76 80 84 87 89 90 90 92 92 92 92 92 92 90 91 92 93 94 95 96 96 97 98 98 99 100 99 99 100 100 100 100 100 100 100 100 99 98 99 99 99 98 96 96 97 99 100 100 100 100 100 100 100 100 100 99 99 99 99 99 98 98 98 98 96 95 93 92 90 88 84 80 76 74 72 71 70 70 70 70 70 71 72 72 74
69 73 78 82 85 88 90 90 91 92 92 92 92 92 92 91 92 92 93 94 95 96 97 98 98 99 99 99 99 99 100 100 100 100 100 100 100 99 98 98 98 99 100 99 99 99 99 99 99 100 100 100 100 100 100 100 99 98 98 99 100 100 99 98 98 97 95 92 90 88 86 84 82 78 76 75 74 74 74 74 74 74 74 74 74 75
66 69 74 78 82 86 89 90 91 91 92 92 92 93 93 92 91 92 93 94 95 96 96 97 98 98 98 98 98 98 99 100 100 100 100 100 100 100 99 98 98 99 100 100 100 100 99 99 99 98 98 99 99 99 99 99 99 98 98 99 99 100 100 100 99 98 96 93 91 89 88 87 85 83 80 78 77 76 76 76 76 76 76 77 76 76
64 66 69 73 77 82 86 89 90 91 92 92 92 93 93 93 92 92 93 94 94 95 96 97 97 98 98 98 98 97 98 99 99 100 100 100 100 100 100 100 100 100 100 100 100 100 99 98 98 98 98 98 98 98 100 99 99 99 98 97 98 98 100 100 100 100 99 97 95 94 92 90 89 87 84 81 79 78 77 78 78 78 78 78 80 81
62 63 65 69 73 77 81 84 88 90 90 91 92 92 92 93 93 93 93 93 94 94 95 96 96 97 98 98 98 97 96 96 98 99 100 100 100 100 100 100 100 100 100 99 99 100 100 99 98 98 98 97 97 98 99 99 99 99 98 96 96 97 99 100 100 100 100 100 99 98 97 95 93 90 88 84 82 80 79 79 80 80 80 81 82 85
59 60 62 64 68 72 76 80 84 87 90 90 91 92 92 92 93 93 93 93 93 94 94 95 95 96 97 98 97 97 96 96 96 98 100 100 100 100 100 100 100 100 100 99 99 99 100 99 99 98 98 96 95 96 97 98 99 99 99 97 96 97 98 98 99 100 100 100 100 100 99 98 95 92 90 86 84 82 80 80 82 83 84 86 88 90
54 56 58 60 63 67 71 76 80 84 88 90 90 92 92 92 92 93 94 93 93 94 94 94 94 95 96 96 96 96 95 95 96 97 98 99 100 100 100 100 100 100 100 99 98 98 98 98 99 98 98 96 94 94 95 96 98 98 99 99 99 98 97 97 98 99 100 100 99 99 99 97 96 94 90 87 85 83 82 82 84 86 89 92 94 95
46 50 52 55 58 62 67 72 76 80 84 87 90 90 92 92 92 92 93 93 93 93 93 93 94 94 94 94 94 94 94 94 95 95 96 97 97 98 99 99 100 100 100 100 99 98 97 97 97 97 97 96 95 94 94 95 96 98 99 99 99 99 98 98 99 99 99 99 99 99 98 97 96 94 90 88 87 86 85 87 89 92 94 96 97 97
38 42 46 50 54 58 62 67 72 76 80 84 87 90 90 92 92 92 92 93 93 93 93 93 93 93 93 93 92 92 93 94 94 94 95 95 96 96 97 97 98 99 100 100 100 99 99 98 97 96 95 96 96 97 97 97 97 98 98 99 99 100 100 99 99 98 98 98 98 98 98 96 94 92 90 90 90 90 90 92 94 96 98 98 97 97
31 36 40 44 48 52 57 62 67 72 76 80 84 87 89 90 92 92 92 92 93 93 93 92 92 92 92 92 92 92 92 93 93 94 94 94 95 95 96 96 97 98 98 99 99 99 98 98 98 97 96 96 97 97 97 98 98 98 99 99 99 99 99 99 99 98 98 98 98 98 98 96 94 92 92 92 92 93 95 96 97 98 98 98 97 96
26 29 33 37 42 46 51 57 62 67 72 76 80 83 86 89 90 92 92 92 92 92 92 92 92 92 92 92 92 91 92 92 93 94 94 94 94 94 95 96 96 97 97 98 98 98 98 98 97 97 96 97 97 96 97 98 98 98 98 98 99 99 99 99 98 98 98 98 98 98 98 97 96 95 94 94 95 96 97 98 98 98 98 97 96 96
23 25 27 31 36 40 44 50 56 62 68 72 76 79 83 86 88 90 91 92 92 92 92 92 92 92 92 92 92 91 92 92 92 93 94 94 94 94 94 94 96 96 97 97 97 97 97 96 96 96 96 96 96 96 97 98 98 98 98 98 98 98 98 98 98 98 98 98 98 98 98 98 98 98 97 97 98 98 98 98 98 98 97 96 96 95
22 22 24 26 30 34 38 43 50 56 62 68 72 76 78 81 84 87 89 90 91 92 92 92 92 92 92 92 92 92 92 92 92 93 93 93 94 94 94 94 95 96 97 96 96 96 96 95 95 94 94 94 94 95 96 96 97 98 98 97 97 97 98 98 98 98 97 97 97 97 97 97 98 98 98 98 98 98 98 98 98 97 96 96 95 94
Wind_Speed
32 31 29 28 28 28 29 29 29 28 25 22 18 15 15 16 18 19 19 19 21 23 26 27 28 29 29 29 29 28 27 26 25 24 24 24 25 25 25 26 28 29 30 31 32 33 34 35 36 37 37 39 39 38 36 35 36 38 39 39 40 40 40 39 38 38 37 37 36 36 36 36 36 36 36 35 34 34 34 34 34 35 35 35 35 35
30 29 28 27 26 27 28 29 28 28 26 24 21 19 17 17 17 18 18 19 21 24 26 28 29 30 30 30 30 30 29 28 27 26 25 25 25 25 26 26 28 29 31 32 33 33 34 34 35 36 37 38 39 39 39 37 37 37 38 39 40 41 42 41 40 39 38 37 37 36 36 36 36 36 36 36 36 35 35 35 35 35 35 35 36 36
25 25 25 24 24 25 26 27 27 27 27 26 24 22 20 19 18 17 16 17 19 22 25 27 29 31 31 31 31 31 30 29 28 27 27 26 26 26 26 27 28 30 31 32 33 34 34 34 35 35 36 37 39 40 40 39 38 38 38 39 40 41 42 43 42 40 39 38 38 37 37 36 37 37 37 37 37 37 36 36 36 36 36 36 36 37
19 20 22 22 23 24 25 26 26 26 26 26 26 25 23 23 21 19 17 16 17 19 22 26 28 30 32 32 32 32 31 30 30 29 28 28 27 27 27 27 28 30 31 33 34 35 35 35 35 35 35 36 38 39 39 39 40 40 40 40 41 42 42 43 43 42 40 39 38 38 37 37 38 38 38 38 38 38 37 37 37 37 37 37 38 38
16 18 20 21 22 24 25 25 25 25 25 25 26 26 25 24 24 22 19 18 18 18 20 22 25 28 30 32 32 32 32 31 31 30 29 29 28 28 28 28 28 30 31 33 35 35 36 35 35 35 35 36 37 38 39 39 40 41 41 41 41 41 42 43 43 43 41 40 40 39 39 38 39 39 39 39 39 38 38 37 37 38 39 39 39 39
17 18 19 21 22 24 24 24 23 22 22 23 24 24 24 24 24 23 21 20 20 21 21 21 22 24 27 30 32 32 32 32 31 31 30 30 29 29 28 28 29 30 31 33 35 36 37 36 36 35 35 36 36 38 38 39 40 40 40 40 40 41 42 43 43 43 42 41 41 40 39 39 39 39 38 38 37 37 38 38 39 40 41 41 40 40
21 21 21 23 23 24 23 23 21 19 18 19 20 21 22 22 23 23 22 20 21 22 22 21 21 22 24 28 30 32 32 32 31 30 30 30 30 29 29 29 30 30 31 33 35 36 37 37 37 36 36 36 36 37 38 39 40 39 38 38 38 39 40 42 43 43 43 42 41 39 38 38 38 38 36 34 32 32 34 37 40 42 43 42 40 39
23 23 24 24 25 25 24 23 21 18 16 16 16 17 19 20 21 21 20 20 21 22 23 22 21 21 22 26 28 30 30 30 30 30 30 30 30 30 30 30 30 31 32 33 35 36 38 38 38 38 37 37 36 37 38 39 39 39 38 36 35 36 38 40 41 42 43 41 38 36 36 36 36 34 32 30 29 28 31 35 39 42 44 43 41 40
19 21 22 23 24 25 26 26 23 19 16 15 15 16 17 18 19 20 20 20 21 23 24 23 21 20 21 23 26 27 28 28 28 29 29 30 30 31 31 31 31 31 32 33 34 36 38 39 39 39 38 38 37 37 38 39 39 38 37 36 35 35 36 38 40 41 41 38 36 34 35 35 33 31 30 30 30 29 32 36 39 41 43 43 43 43
14 15 16 17 19 21 23 25 25 24 20 18 16 16 17 17 18 19 20 20 21 23 24 23 21 19 18 20 22 25 26 26 26 27 28 29 30 31 31 31 31 32 32 33 34 36 37 39 40 40 40 39 38 38 38 38 37 37 36 36 36 36 36 37 38 39 39 37 35 33 34 34 32 29 28 29 30 32 34 37 39 42 43 43 44 46
11 10 9 9 10 12 15 18 21 23 24 22 19 17 17 17 18 19 20 21 21 22 23 22 20 17 15 16 20 24 25 25 25 26 27 28 29 29 30 30 31 32 32 33 34 35 37 38 40 41 41 40 40 40 40 38 35 33 33 34 36 37 37 36 36 35 35 35 34 34 35 35 32 29 28 29 31 34 37 39 41 42 42 42 43 46
13 12 10 8 8 8 8 10 14 18 21 22 21 20 19 18 18 19 20 21 21 21 22 22 20 16 13 14 18 23 26 26 25 25 26 27 28 28 28 29 30 31 31 33 34 35 36 38 39 40 41 41 40 40 41 40 37 33 30 30 32 35 36 34 32 31 31 31 33 35 37 37 33 30 30 32 34 37 40 42 43 42 41 41 43 44
15 15 14 13 11 9 7 7 8 11 13 14 15 15 16 17 17 18 20 21 22 21 21 21 20 17 13 13 17 22 26 26 25 24 24 25 26 27 27 28 29 30 31 32 33 34 36 37 38 40 40 40 40 40 40 41 40 37 33 30 28 30 31 30 29 28 27 27 29 33 37 37 35 33 34 36 38 41 43 44 44 42 41 41 42 43
12 13 14 14 13 12 10 9 8 9 10 9 9 10 12 12 13 15 18 21 22 22 21 21 20 18 14 13 16 21 25 26 25 23 23 23 24 25 26 27 28 29 30 31 33 34 35 36 37 38 39 39 39 39 39 39 39 39 37 34 31 28 27 27 27 27 27 26 27 30 34 36 36 36 38 40 42 44 45 45 43 41 40 41 42 42
8 10 11 11 12 12 12 12 12 12 12 11 10 10 11 12 12 13 14 17 20 21 21 21 21 19 15 13 16 21 25 26 25 24 24 24 24 25 26 26 27 27 29 30 32 33 34 35 36 37 38 38 38 38 37 37 37 37 37 36 34 31 29 28 27 27 27 27 28 29 32 34 36 38 41 43 44 44 44 43 41 40 40 41 41 41
6 6 8 9 10 11 12 13 13 14 14 14 13 12 11 12 13 12 10 12 15 17 18 20 21 20 17 13 16 21 26 26 26 26 26 26 26 27 27 27 26 26 27 29 31 32 33 34 35 36 36 36 36 36 35 34 33 33 33 34 34 33 33 32 31 30 30 29 29 31 32 35 38 41 43 44 44 42 41 40 39 39 39 39 40 39
5 5 5 6 7 8 10 11 12 13 16 18 18 16 14 13 12 11 9 9 11 14 17 19 20 20 18 14 16 22 26 28 29 28 28 28 28 28 29 28 28 27 27 27 29 31 32 33 34 34 35 35 34 34 33 32 31 31 31 31 32 33 35 36 36 35 34 32 32 33 35 37 40 43 45 45 43 41 39 38 38 39 40 40 39 38
6 5 5 6 6 7 8 9 11 13 16 19 22 22 20 16 12 10 9 8 9 12 15 18 20 20 19 17 15 21 27 30 31 31 30 29 29 29 30 30 30 30 29 28 29 30 31 32 32 33 34 34 33 33 32 32 32 32 32 33 34 35 36 37 38 38 36 34 35 37 38 40 43 45 46 44 43 41 40 40 41 41 40 39 38 36
7 6 6 7 8 9 9 9 10 11 12 16 20 23 23 21 16 13 11 9 8 9 13 16 20 21 20 19 16 20 26 29 31 32 32 30 29 30 32 33 33 33 31 32 32 32 31 31 31 31 32 33 32 32 32 33 33 34 35 36 36 37 38 38 37 37 36 35 37 40 42 44 46 47 46 44 43 42 42 42 41 40 38 36 35 33
7 6 6 7 9 10 11 11 11 11 12 15 18 22 23 24 22 18 13 10 7 6 9 13 17 21 22 19 17 20 25 27 30 33 33 32 32 32 33 35 36 36 33 34 34 33 33 32 30 30 31 32 31 31 30 31 33 34 36 37 38 38 39 38 38 37 37 38 40 43 46 47 48 47 46 44 44 43 43 42 40 38 35 33 31 29
7 7 5 6 8 9 11 12 12 13 14 15 17 20 23 25 25 23 18 14 10 8 8 10 15 19 22 19 17 20 24 26 29 32 35 36 35 34 34 35 37 37 36 35 35 35 35 34 33 32 31 31 31 30 29 30 31 33 35 36 37 38 39 39 40 40 41 43 45 48 49 49 48 46 45 44 44 43 42 40 38 35 32 30 28 27
7 6 6 7 7 8 10 12 13 15 16 16 17 18 21 23 24 24 22 19 15 13 11 11 14 18 21 19 18 20 23 25 29 32 36 38 38 36 35 36 37 38 37 37 37 38 39 39 38 36 34 33 32 32 31 30 31 32 35 36 38 39 40 41 43 44 46 47 49 50 49 48 46 44 42 41 41 40 38 37 35 32 30 29 28 27
7 7 7 7 8 8 10 12 13 15 16 17 18 19 21 23 23 23 22 21 19 17 15 13 14 16 19 19 19 20 23 25 29 32 36 37 38 38 38 38 39 40 40 40 41 43 43 44 44 43 41 38 36 35 34 33 34 36 38 40 42 43 42 44 45 45 46 48 48 47 46 44 41 39 37 36 36 35 34 33 32 32 31 31 30 31
6 7 7 8 8 9 10 11 12 14 16 17 20 22 23 24 23 22 21 21 20 19 17 15 15 16 19 20 20 20 24 26 29 33 36 36 37 39 42 43 45 46 45 44 45 45 46 47 47 48 48 47 45 43 41 40 40 41 42 43 45 46 45 45 45 45 46 45 44 43 41 39 38 37 36 35 34 34 34 34 34 34 34 33 33 32
6 6 7 7 8 9 10 11 12 13 15 17 19 22 23 23 23 22 20 20 20 20 19 18 17 18 21 21 20 20 24 27 30 34 37 37 37 38 41 43 45 45 43 43 43 43 44 44 45 47 49 51 52 52 50 48 47 47 47 47 47 46 46 45 45 45 45 44 42 41 40 40 39 39 39 38 38 38 38 38 38 37 36 34 33 31
5 5 5 7 8 9 10 11 11 12 14 16 19 20 21 21 21 20 19 19 20 20 22 22 21 20 22 21 21 21 23 26 30 34 38 38 37 36 39 41 42 42 38 37 37 38 38 37 37 38 41 44 48 51 53 54 54 54 52 51 49 48 47 46 46 46 45 44 43 43 43 44 44 43 43 43 43 42 42 41 39 38 36 34 31 29
3 3 4 5 6 8 9 10 11 12 13 15 17 18 18 18 17 18 19 20 20 21 22 24 23 21 23 22 22 22 23 24 28 33 38 39 38 37 37 39 41 40 37 33 32 32 33 33 32 31 32 33 36 40 45 49 52 53 53 52 51 50 49 49 49 48 47 46 46 46 46 46 46 46 45 45 44 43 43 42 40 38 36 35 32 30
4 3 2 2 3 5 7 8 9 10 11 12 13 14 14 13 13 15 19 20 20 21 24 25 24 23 25 24 23 24 24 22 25 31 37 40 39 37 37 39 41 41 39 34 31 30 31 31 30 30 30 29 29 30 33 36 40 43 45 46 47 48 48 48 48 48 47 47 46 46 46 46 45 45 44 43 42 41 41 40 39 38 36 35 34 32
7 5 3 2 1 1 3 4 6 7 8 8 9 10 10 10 11 13 17 19 20 22 25 26 25 26 26 24 24 25 25 22 24 30 35 40 39 38 39 40 41 42 42 38 34 30 29 29 29 30 30 30 29 29 29 29 30 32 34 36 38 40 41 42 42 42 42 43 43 43 42 42 41 40 40 39 38 38 37 37 37 37 35 34 33 31
10 9 7 6 5 4 2 1 2 2 3 5 6 8 9 11 12 14 17 19 21 23 25 24 25 27 27 25 25 27 27 23 25 31 35 37 39 40 41 41 42 43 43 41 37 33 30 29 28 29 30 31 31 30 30 29 29 30 30 31 31 32 33 34 35 35 36 36 37 37 36 36 36 35 35 35 34 34 34 34 34 33 32 31 30 29
14 13 12 11 10 8 7 6 5 4 4 3 5 7 9 10 12 15 17 19 21 23 24 21 23 27 29 28 27 28 30 26 26 31 36 36 39 43 45 43 42 43 43 42 40 37 34 32 30 29 29 30 31 30 30 30 31 31 31 30 30 30 30 31 31 32 32 32 32 32 32 32 32 32 31 31 31 30 30 29 29 29 29 29 29 29
18 17 17 16 15 14 13 11 9 8 7 6 6 8 10 10 10 11 14 17 19 21 22 23 25 28 30 31 31 31 33 28 27 31 35 36 40 46 48 46 43 41 40 41 41 40 38 38 37 34 32 32 32 32 31 31 32 33 33 33 32 31 30 31 31 31 31 31 30 30 30 30 29 29 29 29 28 27 27 26 26 27 28 28 29 28
20 20 19 19 18 18 18 16 14 12 11 10 10 11 12 12 11 12 14 16 18 20 23 25 27 29 32 34 35 35 34 31 29 31 35 37 40 44 48 47 43 39 37 37 40 43 44 46 45 42 39 37 36 36 35 34 34 35 35 35 35 34 33 33 33 33 32 31 31 30 29 29 29 28 28 28 27 26 26 25 25 25 26 26 27 27
20 20 20 20 20 21 20 19 18 17 15 14 14 14 14 14 14 15 16 18 20 22 23 25 27 29 32 36 38 38 36 33 32 33 37 39 41 44 48 47 44 40 38 37 39 43 47 49 50 48 45 43 42 41 40 39 38 37 36 37 37 36 35 34 34 34 33 33 32 31 30 29 28 27 27 26 26 25 24 24 23 23 23 23 24 25
21 21 21 22 22 22 22 22 21 19 18 18 17 17 17 16 16 16 17 18 20 22 23 24 27 29 32 36 39 40 38 36 34 35 38 40 41 44 47 47 45 44 42 42 43 45 46 49 50 50 49 48 46 44 44 43 41 39 38 37 36 36 35 35 35 35 34 34 33 32 31 30 29 28 28 27 26 26 25 24 24 23 22 22 23 23
23 23 24 24 24 24 24 23 22 21 20 19 19 19 19 19 18 18 18 19 20 21 22 24 26 30 33 37 40 42 41 38 36 36 38 40 41 43 46 47 48 49 49 49 49 49 49 49 50 51 51 51 49 47 46 45 43 41 39 38 37 36 35 34 34 34 35 35 35 34 34 33 33 32 31 30 29 29 28 27 26 25 24 24 23 22
25 26 26 26 26 26 25 24 23 22 21 20 20 20 20 20 20 19 19 19 20 21 21 23 25 29 33 37 41 43 43 41 38 36 37 40 43 46 48 49 50 53 54 55 55 55 54 52 51 51 52 52 51 50 49 48 46 44 42 40 39 37 36 35 34 34 35 36 36 36 36 36 36 35 35 34 33 32 31 30 28 27 26 25 24 22
27 27 27 27 27 27 26 25 23 22 21 20 20 20 20 20 21 21 20 20 21 21 21 22 24 27 31 35 39 42 43 41 38 36 36 40 45 50 53 52 52 54 56 58 59 60 59 57 54 52 51 51 52 52 52 51 49 47 46 43 41 40 39 37 36 35 35 36 36 37 37 37 37 36 35 35 34 33 32 31 29 28 27 26 24 23
28 28 28 28 28 28 27 26 23 21 19 19 18 18 18 18 20 21 22 22 22 22 22 22 24 26 28 31 34 37 38 38 36 35 36 41 47 53 56 56 55 55 57 59 61 62 62 61 58 56 53 52 52 52 52 51 50 49 47 45 43 42 40 39 38 37 36 36 36 36 36 35 35 34 33 33 32 31 30 30 28 27 26 25 24 23
27 27 28 27 27 27 26 25 23 21 18 17 16 16 15 16 17 20 23 24 24 24 24 24 25 26 27 28 29 30 32 32 33 34 37 42 48 53 57 58 58 58 59 60 61 62 62 61 60 59 58 56 54 53 52 51 50 48 47 46 44 43 41 40 39 38 37 36 36 35 35 34 33 32 31 31 30 29 28 27 26 25 24 23 22 21
26 26 26 26 26 25 25 25 23 21 18 16 15 15 16 15 16 18 21 24 26 26 26 26 26 27 27 26 25 25 27 29 31 34 38 42 47 52 56 58 60 60 61 61 60 60 61 60 60 59 59 58 57 55 52 51 49 47 47 46 44 43 41 39 38 37 37 36 35 34 34 33 32 31 30 29 28 27 26 25 25 24 23 21 20 19
24 25 25 25 25 24 24 24 23 22 20 17 16 16 17 17 17 17 19 23 26 27 27 27 27 27 27 25 24 25 27 29 32 34 37 41 45 50 54 57 59 60 62 61 60 59 59 59 59 59 58 58 57 55 52 50 48 47 46 45 44 43 41 39 37 37 36 35 34 34 33 32 31 30 29 28 27 26 25 24 23 22 22 21 20 18
23 23 23 23 23 23 23 23 23 23 22 20 18 17 18 19 19 18 19 22 25 27 28 28 28 28 29 28 27 27 28 30 33 34 36 38 42 46 50 54 56 58 60 60 58 57 57 57 57 57 57 57 56 54 52 50 48 46 45 44 43 42 40 39 37 36 36 35 34 34 33 32 31 30 29 28 27 26 25 24 22 22 21 20 19 18
22 22 22 22 22 22 22 23 24 25 24 22 21 19 18 19 20 20 20 21 24 27 29 30 30 31 32 31 29 29 29 31 33 34 35 36 38 41 45 48 51 53 55 56 55 54 54 54 54 54 54 54 54 53 52 50 48 46 44 43 43 42 40 39 38 37 35 35 34 33 32 32 31 30 30 28 27 26 25 24 23 21 20 19 18 16
21 21 21 21 22 22 23 24 24 25 25 24 22 20 19 19 20 21 21 22 23 26 29 30 32 33 33 32 31 31 30 32 33 34 35 35 36 38 41 43 46 48 49 50 51 51 50 50 50 50 51 51 51 50 50 49 47 45 44 43 42 41 40 39 37 36 35 35 34 33 32 31 31 30 30 29 27 26 25 23 22 21 20 18 16 15
21 21 21 22 22 23 23 23 24 24 24 24 23 22 20 19 20 21 22 22 24 25 28 30 32 34 34 34 33 32 32 33 34 35 36 37 38 39 41 42 44 45 46 46 47 47 48 48 48 48 48 48 48 48 48 47 47 45 44 42 41 41 40 38 36 35 34 34 33 32 31 31 30 30 29 28 27 26 25 23 22 20 19 17 16 14
22 22 22 22 22 22 22 23 23 23 24 24 24 23 21 20 20 21 22 23 24 25 27 29 32 34 34 34 34 33 33 34 34 35 36 37 39 40 42 43 44 44 45 45 45 45 45 45 46 46 47 47 46 45 45 46 46 45 44 42 41 40 39 37 36 34 33 33 32 32 31 30 30 29 29 28 27 26 24 23 21 20 18 16 15 14
22 22 22 22 22 22 22 22 22 23 23 24 24 23 22 21 21 21 22 23 24 25 27 29 31 33 33 34 34 34 34 35 35 35 36 36 37 39 41 42 43 44 45 45 45 45 45 44 44 44 45 46 46 45 44 44 44 44 44 42 41 40 39 37 35 34 33 32 32 31 30 30 29 29 28 27 26 25 23 22 20 18 17 16 14 14
22 22 22 22 22 22 23 23 22 22 23 23 23 23 23 22 21 22 22 23 24 25 27 29 30 31 32 32 33 34 35 36 36 37 36 36 36 37 39 41 43 44 44 45 45 45 45 45 44 43 42 43 45 46 45 44 43 43 43 41 40 39 38 36 35 34 33 32 31 31 30 29 28 27 26 26 24 23 22 20 19 17 16 15 14 14
22 22 22 22 23 23 23 22 22 22 22 22 22 22 22 22 22 22 22 23 24 25 27 28 29 30 30 30 31 33 34 36 37 37 37 36 36 36 37 38 41 43 44 43 44 44 44 43 42 41 40 40 41 43 44 44 43 42 41 39 38 38 37 36 34 33 32 31 30 29 28 27 26 24 23 23 22 21 20 18 17 16 15 14 14 14
22 22 22 22 23 23 23 22 22 22 21 21 21 21 21 21 22 22 22 23 23 24 25 27 28 28 28 28 29 31 32 34 35 36 36 35 35 35 35 36 39 41 42 42 41 41 40 39 36 34 34 34 35 37 40 41 41 41 39 37 36 36 35 35 33 32 30 29 28 27 26 25 23 22 20 19 18 18 17 16 15 15 14 14 13 14
Wind_Direction
264 268 272 275 275 272 266 260 258 257 255 252 249 246 240 235 234 234 233 229 225 225 226 228 230 232 234 237 240 243 244 244 240 237 234 233 233 234 234 233 232 230 229 226 224 222 220 219 219 219 219 219 218 216 215 212 209 208 209 207 206 206 209 211 212 212 212 211 210 210 210 211 210 209 207 205 204 203 203 202 202 203 205 204 202 201
263 267 270 272 272 271 268 262 259 258 258 255 254 253 251 246 240 236 233 229 226 226 228 230 232 234 235 236 238 240 241 241 240 237 234 232 232 232 233 232 232 230 229 227 225 223 221 220 219 219 219 220 218 217 215 215 214 212 211 209 207 206 206 208 210 211 211 210 210 209 209 209 208 207 205 203 202 202 201 202 202 203 204 204 203 201
260 262 263 264 266 267 267 263 259 258 259 259 258 257 258 255 250 244 239 234 230 229 230 233 234 236 237 237 238 238 238 238 237 236 233 231 230 230 231 231 231 230 229 227 226 224 222 221 220 220 220 220 219 218 215 215 215 216 215 213 209 206 205 205 207 209 210 210 209 208 207 206 205 204 203 202 201 201 200 201 202 203 203 203 203 201
253 254 256 259 262 263 264 264 263 262 261 260 259 258 259 260 258 255 253 251 245 239 235 235 236 238 239 239 238 238 237 236 235 234 232 230 229 229 229 230 230 229 228 227 226 225 223 222 221 220 220 220 220 218 216 215 216 217 217 216 211 207 204 203 204 206 208 210 210 208 206 205 203 202 202 201 200 199 200 200 201 202 202 203 202 201
249 250 254 257 260 261 262 263 264 264 263 260 258 258 259 260 259 258 259 263 263 258 249 241 239 240 240 240 239 237 236 234 233 232 231 230 229 228 228 229 229 229 228 227 226 225 224 222 221 221 220 220 219 218 216 215 217 218 218 216 213 207 203 202 202 204 207 209 209 207 205 203 202 201 200 198 197 197 197 199 200 201 202 203 203 201
253 254 256 257 259 261 261 262 264 266 265 261 258 257 258 258 257 257 262 270 274 271 263 253 246 242 241 240 238 236 234 233 232 231 231 231 230 229 228 228 228 228 227 226 225 224 224 223 222 221 220 220 218 217 215 216 218 219 218 216 213 208 203 201 200 201 204 206 206 204 201 199 198 197 195 192 191 191 193 195 196 199 202 204 203 201
259 258 259 260 260 261 262 263 264 267 268 265 261 257 256 255 255 257 264 273 278 275 268 260 252 246 242 240 238 236 233 232 231 231 232 232 231 230 229 229 228 228 226 225 224 224 223 223 222 221 221 219 218 216 216 217 219 220 218 216 213 209 204 201 200 200 202 203 202 200 198 196 195 193 190 188 187 188 190 190 192 197 201 204 204 200
266 265 265 266 267 266 264 263 263 266 269 271 269 264 260 257 256 258 264 272 275 274 269 262 255 248 243 240 238 236 234 232 231 231 232 232 232 232 230 229 228 227 226 225 224 223 223 222 222 221 221 219 217 215 215 218 219 220 218 216 213 211 208 204 201 200 202 202 201 199 198 197 195 194 192 194 195 195 190 188 189 193 198 202 201 196
272 274 273 273 273 272 270 266 264 264 267 271 273 272 269 265 262 261 264 269 272 272 269 264 257 251 246 243 241 239 236 233 232 231 232 232 232 232 231 229 228 227 226 224 223 222 222 222 221 221 221 219 217 215 215 217 218 217 216 214 213 212 211 208 205 203 203 203 202 201 200 200 199 197 197 203 205 199 189 186 187 189 192 194 193 191
270 277 281 281 279 278 276 273 269 264 263 267 271 273 273 272 270 268 267 268 269 269 267 262 257 254 254 252 249 245 240 236 233 231 231 231 232 232 231 230 228 227 225 224 223 222 221 221 221 221 220 220 217 215 215 215 215 214 212 212 212 212 212 210 208 206 206 206 205 205 206 206 203 200 199 203 201 194 188 187 187 187 186 186 187 186
260 268 282 294 299 295 288 284 277 271 265 266 269 271 270 269 269 270 271 270 270 269 265 258 252 253 259 258 254 249 244 239 234 232 231 231 231 231 231 230 228 227 224 223 222 221 220 220 220 220 220 219 218 217 216 217 216 214 210 209 209 210 211 210 208 207 207 208 209 211 212 211 207 202 200 199 196 191 188 188 188 187 186 186 185 183
259 263 271 286 307 319 310 298 286 278 273 273 275 277 273 267 266 269 270 271 272 271 267 255 247 246 254 249 244 244 243 240 236 233 231 230 229 228 228 227 226 224 222 221 220 219 219 219 219 219 219 219 219 218 217 218 219 217 214 210 207 207 208 207 206 204 205 207 211 214 214 213 208 204 203 200 194 190 188 188 188 188 189 189 187 185
263 266 270 277 288 300 307 302 292 283 277 276 279 281 278 272 272 273 272 270 271 271 268 255 245 242 247 237 230 231 237 238 236 233 230 228 226 225 223 222 220 219 218 217 217 216 216 217 217 218 218 219 219 218 218 218 219 219 218 215 211 207 205 203 202 201 203 206 211 214 215 212 208 205 203 198 192 189 188 188 189 191 193 193 193 191
270 272 276 281 284 285 284 282 278 269 260 260 263 263 260 260 264 269 271 271 271 270 267 254 245 244 246 231 217 218 227 233 234 231 228 226 224 223 220 218 216 214 213 212 212 213 213 213 214 215 216 217 218 218 218 218 218 218 218 218 216 212 207 202 200 200 202 205 210 213 213 210 207 204 201 194 190 188 188 190 194 197 199 198 197 194
282 281 282 285 284 279 275 270 263 257 254 254 252 249 245 241 240 246 258 266 269 269 265 254 248 248 248 227 204 203 215 226 229 227 223 221 220 220 218 216 213 211 210 208 208 209 209 209 211 212 213 215 216 217 218 218 217 217 216 216 216 215 214 210 206 204 204 207 210 211 209 207 205 202 196 192 188 187 190 194 198 200 201 198 193 188
311 295 288 283 279 275 271 266 263 262 260 257 252 247 240 233 227 227 238 255 261 262 259 256 254 254 251 223 193 190 202 214 220 220 217 214 213 214 215 214 211 209 207 206 205 205 206 206 208 209 210 212 213 215 216 216 216 216 215 215 214 215 216 216 214 213 211 209 208 206 203 205 203 198 192 189 188 189 192 195 195 192 188 183 180 178
350 334 314 296 287 280 272 267 266 264 259 254 252 251 248 240 228 220 221 236 248 251 251 250 251 255 255 229 189 179 189 201 209 212 211 205 202 203 206 208 207 206 205 205 204 203 204 204 205 206 207 208 209 210 212 213 214 214 214 214 214 214 215 216 216 216 215 209 205 203 200 200 198 193 186 185 186 188 189 187 182 176 172 171 171 173
8 352 333 323 314 301 286 277 266 259 255 253 251 250 249 244 233 218 209 213 228 239 243 244 244 245 248 233 192 169 178 189 197 201 200 192 185 186 192 198 200 200 200 200 202 203 204 205 205 206 206 205 205 206 209 210 212 213 213 214 214 213 212 210 210 211 210 206 201 199 199 196 189 183 178 177 178 180 179 174 169 167 167 169 171 173
14 352 336 329 320 308 298 294 285 275 269 259 253 249 247 244 237 224 210 203 210 226 234 239 240 240 239 229 196 166 167 176 182 185 184 177 169 168 176 184 189 191 191 191 195 199 201 204 206 207 206 204 203 203 205 207 209 210 210 211 211 209 206 203 200 199 202 199 193 191 192 187 180 174 171 171 171 170 169 167 165 166 167 169 171 173
19 3 347 334 320 309 303 298 294 290 283 270 258 251 248 244 241 234 221 205 200 214 228 237 239 239 236 229 203 171 159 167 175 175 168 161 155 156 163 171 177 179 178 181 185 190 194 197 201 205 207 206 204 202 202 202 203 204 204 204 204 202 200 196 193 193 194 192 189 185 181 176 171 168 167 165 165 164 164 164 165 167 168 169 170 170
15 6 349 333 323 316 309 297 292 291 287 278 268 259 252 247 244 240 233 221 213 212 225 240 244 241 235 233 212 182 161 162 165 163 155 149 145 147 155 163 169 171 169 170 173 178 182 185 188 192 199 204 205 203 200 199 198 196 195 195 196 195 193 190 189 188 188 185 182 178 173 170 167 165 163 163 162 163 164 165 167 168 169 170 169 168
9 356 335 323 319 316 306 296 289 287 285 282 277 268 259 252 246 242 237 231 225 221 224 233 242 242 236 236 219 193 171 165 165 160 148 138 134 138 147 156 162 164 161 159 160 164 168 169 170 173 181 191 197 198 197 196 192 188 185 187 188 189 188 187 186 185 182 180 176 173 171 168 167 166 165 165 165 166 167 168 168 168 168 166 165 163
356 341 324 314 311 307 300 292 289 287 284 280 276 270 262 255 249 244 238 234 230 228 228 229 234 238 237 236 223 201 182 173 169 163 149 137 131 132 138 145 148 148 147 147 148 151 155 156 156 157 162 170 179 185 187 185 180 176 177 179 178 179 184 183 182 181 179 176 173 171 170 170 169 168 168 167 167 167 167 166 165 163 161 159 158 157
347 334 322 317 312 307 302 299 298 295 289 282 274 268 263 258 253 247 241 237 233 232 231 232 231 231 232 232 226 210 190 176 171 166 155 142 134 132 134 137 136 134 134 136 138 140 141 142 145 148 150 155 162 168 173 175 174 173 174 176 174 173 177 176 176 175 173 171 170 169 169 168 168 167 166 164 163 161 160 158 157 155 154 154 154 153
354 342 332 320 311 304 299 297 298 299 295 287 279 271 266 262 258 252 246 240 234 230 228 231 231 226 222 224 225 215 195 178 171 166 159 147 138 134 135 136 134 132 131 133 134 134 132 130 132 135 139 144 149 155 160 164 167 169 170 171 172 172 171 171 171 170 168 168 167 166 165 164 163 162 161 160 158 157 155 154 152 152 152 152 152 153
353 338 320 306 298 291 287 285 286 289 290 287 282 277 271 267 262 256 249 240 231 225 224 230 231 223 214 216 219 214 198 180 171 167 162 151 142 137 136 138 137 135 134 134 134 134 132 130 129 129 131 134 138 143 148 152 155 158 160 162 163 164 165 165 165 165 165 165 165 164 163 161 160 160 159 158 157 157 156 155 154 155 155 156 157 158
360 331 305 291 284 279 276 273 273 276 279 282 282 280 276 270 262 252 243 236 229 224 224 230 228 217 206 209 214 211 199 182 172 167 164 155 146 139 137 139 141 141 137 134 133 133 133 133 133 133 133 134 134 137 139 142 145 147 149 152 154 155 157 157 158 159 160 162 163 162 162 161 160 160 160 160 159 159 160 160 161 162 164 165 167 169
34 20 340 298 281 272 267 263 263 265 269 275 277 275 271 262 247 234 230 228 225 223 225 227 221 209 199 202 208 207 197 184 172 167 165 159 151 144 141 142 145 145 141 135 130 128 128 130 133 135 138 139 140 141 141 142 142 143 145 147 149 150 152 152 153 155 157 159 160 161 161 161 161 162 162 163 164 165 166 167 170 172 173 174 174 173
55 56 56 52 32 294 258 247 248 251 257 263 261 256 250 236 222 216 219 220 219 219 221 220 213 203 197 199 203 202 196 185 172 166 164 161 156 150 146 145 146 146 142 135 129 126 125 127 130 133 136 139 141 144 146 147 148 149 149 150 151 152 153 153 155 156 158 159 161 162 163 163 164 166 167 169 171 173 174 176 177 178 177 175 171 165
55 58 60 60 59 63 76 135 177 199 218 230 229 223 219 213 208 207 211 212 211 211 211 209 204 200 197 198 198 197 195 188 173 163 161 160 157 154 151 147 145 144 141 135 130 128 129 130 131 132 134 136 138 140 143 146 148 150 151 153 155 157 158 159 160 161 162 164 165 167 168 169 171 172 174 175 177 178 179 179 178 176 172 167 161 155
51 54 56 56 57 60 66 77 91 107 128 153 177 186 188 191 195 199 202 202 202 200 197 192 189 189 192 193 190 189 193 190 174 161 158 157 157 156 154 149 145 144 144 141 136 133 133 135 136 137 137 136 137 138 140 142 143 144 146 148 150 153 157 159 161 163 164 166 168 169 170 171 172 172 173 173 173 173 172 172 169 166 161 156 153 151
51 53 56 56 57 58 61 65 73 84 99 112 136 154 161 162 168 177 183 186 188 186 181 178 176 178 182 187 187 186 188 187 173 160 155 154 155 156 156 151 147 145 146 146 142 139 138 138 141 143 142 140 139 140 140 141 141 142 143 143 144 147 151 153 154 155 157 158 159 160 160 161 160 160 160 159 159 158 158 157 156 154 152 152 153 155
50 53 55 57 58 58 59 60 63 70 81 95 113 130 140 143 146 153 162 169 172 171 169 170 170 172 175 182 185 186 185 181 171 159 152 151 152 154 154 152 149 147 146 146 144 143 142 142 143 145 145 145 144 144 144 145 145 146 147 146 147 148 149 149 148 148 149 149 149 149 149 149 148 148 148 148 148 148 148 149 150 151 152 154 156 160
48 50 52 55 57 58 59 59 60 64 71 82 94 107 119 127 135 142 150 157 161 163 164 166 167 168 170 174 178 181 180 176 168 158 152 150 151 154 154 151 149 148 146 144 143 143 142 143 144 145 145 146 147 148 149 150 151 152 153 152 152 152 152 151 150 149 148 148 148 149 148 148 148 148 148 148 148 149 150 152 154 156 158 160 163 166
45 47 47 49 51 54 56 58 59 60 64 70 78 87 98 109 120 129 138 147 154 158 161 164 165 165 165 167 170 172 173 172 166 157 152 150 152 154 154 152 151 150 148 146 144 142 141 143 145 145 144 145 147 150 152 154 156 158 159 158 157 157 157 156 154 153 153 153 153 154 154 154 154 154 154 154 154 155 157 159 162 164 166 169 171 173
43 44 44 45 46 48 50 52 55 57 59 61 66 73 83 94 105 116 127 137 145 152 157 161 164 165 166 166 167 168 169 169 164 158 153 151 152 154 155 154 154 153 151 149 147 145 143 143 145 146 147 146 146 149 153 157 160 161 162 162 161 161 161 160 160 159 158 158 158 159 160 160 160 159 159 159 160 161 162 164 166 168 169 172 174 175
41 42 42 41 42 44 46 48 50 54 56 57 59 63 71 81 92 105 118 128 137 145 152 158 163 166 167 167 167 167 167 167 164 159 155 154 155 157 157 156 156 157 155 152 150 149 148 145 145 147 148 148 148 149 153 158 162 164 164 164 164 164 164 165 165 164 163 163 163 163 164 164 163 163 163 163 164 164 165 166 167 169 170 171 172 174
40 40 39 39 40 41 43 44 46 49 54 58 59 59 63 71 82 95 108 119 128 137 145 155 163 167 167 166 165 165 165 165 164 162 159 158 159 160 159 157 157 158 159 157 156 154 152 149 148 147 148 150 151 152 155 159 162 163 165 166 166 167 167 168 169 169 168 167 166 166 167 167 167 166 166 167 167 168 168 169 170 171 172 173 173 174
38 38 38 38 38 39 40 42 44 47 52 58 61 63 64 69 78 89 100 110 119 128 138 149 159 165 167 165 164 163 164 165 166 165 162 161 162 162 161 159 158 157 158 159 159 158 156 155 153 152 151 151 152 154 158 161 163 164 165 167 167 168 168 170 170 171 171 170 169 169 169 170 170 170 170 171 171 172 172 173 174 175 176 176 176 176
38 38 38 38 38 38 39 41 43 46 51 59 67 73 74 75 79 87 96 105 114 123 133 145 155 162 165 163 161 161 163 165 166 166 164 163 163 163 163 161 159 157 156 156 156 157 157 157 157 157 157 155 155 156 159 162 165 167 167 167 166 167 169 171 172 173 174 174 173 172 172 172 173 173 173 174 175 175 176 176 177 178 179 180 180 180
38 39 39 38 38 38 39 41 43 46 50 58 70 80 85 86 85 87 93 101 109 118 128 139 150 158 162 160 156 155 158 160 163 164 163 162 162 163 163 162 160 158 156 154 155 156 157 157 157 157 158 158 159 159 161 163 167 170 170 169 168 169 171 172 174 175 176 176 176 175 174 175 175 176 176 176 177 178 179 180 181 181 182 183 184 185
39 39 39 38 38 38 39 41 43 46 50 56 67 78 86 89 90 90 92 96 101 109 119 128 138 147 153 154 151 149 150 152 156 159 160 161 161 162 161 161 159 158 156 155 155 155 157 157 157 157 158 159 159 159 161 164 168 171 173 173 172 172 172 174 176 177 177 177 177 177 176 176 177 177 177 177 178 179 181 183 184 184 185 186 188 190
40 40 39 38 38 38 39 41 43 46 48 52 60 70 79 85 89 91 93 93 95 100 109 117 127 136 142 144 144 143 143 146 150 153 156 157 159 159 159 158 158 158 158 156 155 155 157 158 158 158 160 161 162 161 161 163 167 172 175 176 176 174 171 172 175 178 178 178 178 178 178 178 178 179 179 180 180 181 182 184 185 187 188 190 192 194
40 40 39 39 39 40 40 42 43 44 46 50 55 63 72 80 86 91 94 93 94 96 102 109 118 128 133 134 135 137 139 144 148 152 154 155 156 157 157 158 158 159 160 160 158 157 158 158 158 159 161 163 164 164 165 166 168 171 174 177 178 178 175 174 175 177 178 179 179 179 179 180 180 181 181 181 182 183 184 185 187 189 191 193 195 198
41 41 40 40 40 40 41 42 43 44 46 49 52 58 67 76 84 90 93 95 95 96 98 104 111 116 117 119 123 128 134 142 149 153 156 158 159 160 160 161 161 162 164 164 164 163 162 160 159 160 162 164 166 166 167 169 170 172 173 176 179 179 179 178 178 179 180 180 179 180 180 182 182 182 182 182 182 183 185 187 189 192 194 197 199 201
41 41 42 42 42 42 42 42 43 44 46 49 51 55 63 72 82 89 94 96 96 95 97 103 106 106 104 105 110 117 124 133 142 149 155 160 163 165 166 166 167 167 167 167 167 168 167 166 164 164 165 166 167 168 169 171 173 173 175 177 179 179 179 178 178 179 180 180 180 180 182 183 184 185 184 184 185 186 188 190 193 195 198 201 204 206
41 42 43 43 44 44 44 44 44 45 46 47 50 53 58 67 77 86 92 96 97 97 98 102 103 101 99 100 102 107 112 120 129 139 147 154 160 164 167 169 170 171 171 170 169 168 168 169 169 170 170 168 167 167 170 173 175 176 177 178 180 180 178 178 178 179 180 181 181 182 183 185 186 187 187 187 188 189 190 193 196 200 203 207 210 213
42 43 44 44 45 45 45 45 45 45 45 46 48 51 55 61 70 79 86 92 96 98 99 100 99 98 97 97 99 102 106 112 119 127 135 143 151 158 163 167 170 172 173 173 172 170 169 169 169 170 172 172 170 169 171 173 175 177 178 180 181 181 180 180 179 180 180 182 183 184 185 186 187 188 189 190 190 192 193 196 199 203 207 211 215 219
43 44 45 45 46 46 46 46 46 46 46 46 48 50 53 57 64 72 80 87 93 96 98 97 97 96 95 94 96 100 104 109 116 122 128 133 140 148 156 162 167 170 171 172 172 171 170 169 169 169 171 173 173 173 173 175 176 178 179 180 182 182 182 182 181 181 182 183 184 185 186 187 189 190 191 192 193 194 196 198 201 205 209 213 218 222
45 45 46 46 47 47 47 47 47 47 47 47 48 49 52 56 61 67 74 81 87 91 94 95 95 95 94 94 96 99 103 108 114 119 123 127 132 138 145 153 160 164 166 166 167 167 166 164 165 166 168 171 173 173 174 175 177 179 179 180 182 183 183 182 182 183 183 184 185 186 186 187 188 190 192 194 196 197 199 202 204 208 211 216 220 223
45 46 46 47 48 48 48 48 49 48 48 48 49 50 52 55 59 64 69 75 81 86 90 93 93 93 92 93 96 99 104 109 114 117 120 125 129 133 138 145 153 158 159 159 159 159 158 156 154 155 159 164 169 172 173 174 176 178 177 178 180 183 183 182 182 182 182 183 184 185 185 186 187 189 191 194 196 199 202 205 208 211 214 218 222 224